Istanbul, Turkey

12:41 AM +03 on February 25, 2017 (GMT +0300)
Ataturk

Weather History for LTBA - October, 2013

Change the Weather History Date:

Sunday, October 13, 2013

  Actual Average Record
Temperature  
Mean Temperature 63 °F -  
Max Temperature 68 °F 62 °F 77 °F (1998)
Min Temperature 58 °F 52 °F 51 °F (2003)
Degree Days  
Heating Degree Days 2    
Growing Degree Days 13 (Base 50)    
Moisture  
Dew Point 54 °F    
Average Humidity 69    
Maximum Humidity 82    
Minimum Humidity 50    
Precipitation  
Precipitation 0.00 in - - ()
Sea Level Pressure  
Sea Level Pressure 30.23 in    
Wind  
Wind Speed 9 mph ()    
Max Wind Speed 16 mph    
Max Gust Speed 18 mph    
Visibility 6.1 miles    
Events      
Averages and records for this station are not official NWS values.
T = Trace of Precipitation, MM = Missing Value Source: Averaged Metar Reports

Daily Weather History Graph

Daily Weather History Graph

Search for Another Location

Airport or City:

Trip Planner

Search our weather history database for the weather conditions in past years. The results will help you decide how hot, cold, wet, or windy it might be!

Date:

Astronomy

Oct. 13, 2013 Rise Set
Actual Time 7:13 AM EEST 6:27 PM EEST
Civil Twilight 6:46 AM EEST 6:54 PM EEST
Nautical Twilight 6:14 AM EEST 7:26 PM EEST
Astronomical Twilight 5:42 AM EEST 7:58 PM EEST
Moon 3:07 PM EEST (10/13) 12:59 AM EEST (10/13)
Length of Visible Light 12h 08m
Length of Day
11h 13m
Waxing Gibbous, 66% of the Moon is Illuminated
Oct 13
Waxing Gibbous
Oct 19
Full
Oct 27
Last Quarter
Nov 3
New
Nov 10
First Quarter

Hourly Weather History & Observations

Time (EEST) Temp. Dew Point Humidity Pressure Visibility Wind Dir Wind Speed Gust Speed Precip Events Conditions
12:20 AM 62.6 °F 55.4 °F 77% 30.24 in 6.2 mi NNE 9.2 mph - N/A   Mostly Cloudy
12:50 AM 62.6 °F 55.4 °F 77% 30.24 in 6.2 mi NNE 8.1 mph - N/A   Mostly Cloudy
1:20 AM 62.6 °F 55.4 °F 77% 30.24 in 6.2 mi NNE 8.1 mph - N/A   Mostly Cloudy
1:50 AM 62.6 °F 53.6 °F 72% 30.24 in 6.2 mi NNE 9.2 mph - N/A   Mostly Cloudy
2:20 AM 62.6 °F 53.6 °F 72% 30.24 in 6.2 mi NNE 9.2 mph - N/A   Mostly Cloudy
2:50 AM 62.6 °F 55.4 °F 77% 30.24 in 6.2 mi NNE 9.2 mph - N/A   Mostly Cloudy
3:00 AM 62 °F 54 °F 69% 30.25 in 6 mi NNE 9.2 mph - -   Mostly Cloudy
3:20 AM 62.6 °F 53.6 °F 72% 30.24 in 6.2 mi North 6.9 mph - N/A   Mostly Cloudy
3:50 AM 60.8 °F 53.6 °F 77% 30.24 in 6.2 mi NNW 8.1 mph - N/A   Mostly Cloudy
4:20 AM 60.8 °F 53.6 °F 77% 30.24 in 6.2 mi North 9.2 mph - N/A   Mostly Cloudy
4:50 AM 60.8 °F 53.6 °F 77% 30.24 in 6.2 mi North 11.5 mph - N/A   Mostly Cloudy
6:20 AM 60.8 °F 53.6 °F 77% 30.24 in 6.2 mi North 13.8 mph - N/A   Mostly Cloudy
6:50 AM 60.8 °F 51.8 °F 72% 30.24 in 6.2 mi North 13.8 mph - N/A   Mostly Cloudy
7:20 AM 59.0 °F 51.8 °F 77% 30.24 in 6.2 mi North 10.4 mph - N/A   Mostly Cloudy
7:50 AM 59.0 °F 53.6 °F 82% 30.24 in 6.2 mi North 13.8 mph - N/A   Scattered Clouds
8:20 AM 60.8 °F 53.6 °F 77% 30.24 in 6.2 mi North 10.4 mph - N/A   Partly Cloudy
8:50 AM 60.8 °F 53.6 °F 77% 30.24 in 6.2 mi North 11.5 mph - N/A   Partly Cloudy
9:00 AM 61 °F 52 °F 65% 30.26 in 6 mi North 11.5 mph - -   Scattered Clouds
9:20 AM 62.6 °F 53.6 °F 72% 30.24 in 6.2 mi North 11.5 mph - N/A   Scattered Clouds
9:50 AM 64.4 °F 53.6 °F 68% 30.24 in 6.2 mi North 11.5 mph - N/A   Scattered Clouds
10:20 AM 66.2 °F 53.6 °F 64% 30.27 in 6.2 mi North 11.5 mph - N/A   Partly Cloudy
10:50 AM 66.2 °F 53.6 °F 64% 30.24 in 6.2 mi NNE 10.4 mph - N/A   Partly Cloudy
11:20 AM 66.2 °F 53.6 °F 64% 30.24 in 6.2 mi NE 9.2 mph - N/A   Partly Cloudy
11:50 AM 68.0 °F 53.6 °F 60% 30.24 in 6.2 mi NE 8.1 mph - N/A   Scattered Clouds
12:20 PM 68.0 °F 53.6 °F 60% 30.24 in 6.2 mi NNE 9.2 mph - N/A   Scattered Clouds
12:50 PM 68.0 °F 53.6 °F 60% 30.24 in 6.2 mi NNE 11.5 mph - N/A   Scattered Clouds
1:20 PM 68.0 °F 53.6 °F 60% 30.24 in 6.2 mi NNE 12.7 mph - N/A   Scattered Clouds
1:50 PM 68.0 °F 53.6 °F 60% 30.24 in 6.2 mi NNE 13.8 mph - N/A   Scattered Clouds
2:20 PM 68.0 °F 53.6 °F 60% 30.21 in 6.2 mi North 16.1 mph - N/A   Scattered Clouds
2:50 PM 68.0 °F 53.6 °F 60% 30.21 in 6.2 mi NE 9.2 mph - N/A   Partly Cloudy
3:00 PM 69 °F 54 °F 50% 30.22 in 6 mi NE 9.2 mph - -   Scattered Clouds
3:20 PM 68.0 °F 53.6 °F 60% 30.21 in 6.2 mi NE 9.2 mph - N/A   Partly Cloudy
3:50 PM 68.0 °F 53.6 °F 60% 30.18 in 6.2 mi NNE 11.5 mph - N/A   Partly Cloudy
4:20 PM 68.0 °F 53.6 °F 60% 30.21 in 6.2 mi NNE 13.8 mph - N/A   Partly Cloudy
4:50 PM 66.2 °F 53.6 °F 64% 30.18 in 6.2 mi North 13.8 mph - N/A   Partly Cloudy
5:20 PM 66.2 °F 53.6 °F 64% 30.18 in 6.2 mi NNE 13.8 mph - N/A   Partly Cloudy
5:50 PM 64.4 °F 53.6 °F 68% 30.21 in - North 13.8 mph - N/A   Clear
6:20 PM 64.4 °F 53.6 °F 68% 30.21 in - North 16.1 mph - N/A   Clear
6:50 PM 62.6 °F 53.6 °F 72% 30.21 in - NNE 15.0 mph - N/A   Clear
7:20 PM 62.6 °F 53.6 °F 72% 30.21 in - NNE 15.0 mph - N/A   Clear
7:50 PM 64.4 °F 55.4 °F 73% 30.21 in - ENE 6.9 mph 18.4 mph N/A   Clear
8:20 PM 62.6 °F 53.6 °F 72% 30.21 in - NNE 10.4 mph - N/A   Clear
8:50 PM 62.6 °F 53.6 °F 72% 30.21 in - NNE 10.4 mph - N/A   Clear
9:00 PM 62 °F 54 °F 68% 30.23 in 6 mi NNE 10.4 mph - -  
9:20 PM 62.6 °F 55.4 °F 77% 30.21 in - NNE 9.2 mph - N/A   Clear
9:50 PM 62.6 °F 53.6 °F 72% 30.21 in - ENE 9.2 mph - N/A   Clear
10:20 PM 60.8 °F 53.6 °F 77% 30.24 in 6.2 mi NE 6.9 mph - N/A   Partly Cloudy
10:50 PM 62.6 °F 53.6 °F 72% 30.24 in 4.3 mi NE 6.9 mph - N/A   Scattered Clouds
11:20 PM 62.6 °F 53.6 °F 72% 30.21 in 5.0 mi NE 6.9 mph - N/A   Scattered Clouds
11:50 PM 62.6 °F 53.6 °F 72% 30.21 in 6.2 mi ENE 6.9 mph - N/A   Scattered Clouds